Location: Unspecified
(0.0000°N, 0.0000°E)
Time: 20:53:59
(UTC+00:00)

Quakesat - Pass Details

Date: 04 August 2021
Orbit: 811 x 824 km, 98.7° (Epoch: 20 September)

Event Time Altitude Azimuth Distance (km) Brightness Sun altitude
Rises 04:44:52 0° 54° (NE) 3,344 ? -19.4°
Reaches altitude 10° 04:49:43 10° 94° (E) 2,414 ? -18.2°
Maximum altitude 04:50:34 10° 103° (ESE) 2,388 ? -18.0°
Drops below altitude 10° 04:51:25 10° 113° (ESE) 2,415 ? -17.8°
Sets 04:56:14 0° 152° (SSE) 3,347 ? -16.7°
